CZ-6A DEB, 55862

Orbit data source: Space-Track

CZ-6A DEB, 55862 is space debris in SSO originally from a launch on Fri, 11 Nov 2022 UTC launched from the Taiyaun Space Center, China (TSC). Debris objects in space refer to the collection of defunct objects orbiting the Earth. Examples of debris include non-operational satellites, rocket bodies, and fragments generated from explosions, collisions, or faulty payload assembly.

Loading next visibility...
Identifier
55862, 2022-151ZJ
Orbit
SSO
Country
Flag of CNCN / PRC
Related business
Manufacturer
SAST
Mission
Spacecraft
Bus & Motor
Unknown
Mass
Unknown
Launch date (UTC)
2022-11-11 (3 years ago)
Launch vehicle
Unknown
Launch site
Taiyaun Space Center, China (TSC)
Object type
Payload
Rocket body
Debris
Shape & HBR
Unknown shape, 0.1 m
Radar Cross Section
Small (<0.1 m²)

Expand to show TLE details & history
Last TLE update: 1 day ago

TLE from 1 day ago
0 CZ-6A DEB
1 55862U 22151ZJ  25349.03604105  .00002643  00000-0  10743-2 0  9991
2 55862  98.7611   7.3921 0001473 198.4557 161.6571 14.28430316154072
Epoch: 2025-12-15T00:51Z
TLE epoch observation values (Epoch: 2025-12-15T00:51:53.946Z)
Latitude
-0.00001°
Longitude
-89.52305°
Altitude
800.91 km
Speed
7.453 km/s
True Right ascension
00h 29m 34s
True Declination
0° 00' 00"
Sunlit
Object was in daylight at epoch
Visualization orbit readout
Latitude
Unknown
Longitude
Unknown
Altitude
Unknown
Speed
Unknown
Apparent Right ascension
Unknown
Apparent Declination
Unknown
Sunlit
N/A
Visualization observer readout
Local Sidereal Time
00:26:45
Azimuth
Unknown
Elevation
Unknown
Doppler factor
Unknown
Orbital elements
Apogee altitude
795.189 km
Perigee altitude
793.076 km
Semi-major axis
7,172.269 km
Eccentricity
0.00015
Inclination
98.7611°
RAAN
7.3921°
Arg. of periapsis
198.4557°
True anomaly
161.66241°
Mean anomaly
161.6571°
Eccentric anomaly
161.65976°
Mean motion
3.57321 °/min
Orbital period
100.75 mins
BSTAR
0.0010743
Loading maneuver chart data...
Computing Atmospheric mass density...
Loading historical data...
Loading historical data...
Loading historical data...
Loading historical data...
Loading historical data...
Loading historical data...
Loading historical data...

Documentation

Showing up to 5 results
|